Weather History for Indianapolis Mount Comfort, IN

Change the Weather History Date:

Monday, February 17, 2014

  Actual Average (KEYE) Record (KEYE)
Temperature  
Mean Temperature 19 °F 32 °F  
Max Temperature 33 °F 41 °F 62 °F (2011)
Min Temperature 5 °F 24 °F 11 °F (2013)
Degree Days  
Heating Degree Days 46 33  
Month to date heating degree days 587  
Since 1 July heating degree days 3788  
Cooling Degree Days 0 0  
Month to date cooling degree days 0  
Year to date cooling degree days 0  
Moisture  
Dew Point 20 °F    
Average Humidity 88    
Maximum Humidity 100    
Minimum Humidity 69    
Precipitation  
Precipitation 0.00 in 0.08 in 0.69 in (2008)
Month to date precipitation 1.23  
Year to date precipitation 3.44  
Sea Level Pressure  
Sea Level Pressure 30.00 in    
Wind  
Wind Speed 9 mph (SSE)    
Max Wind Speed 29 mph    
Max Gust Speed 37 mph    
Visibility 7 miles    
Events      
T = Trace of Precipitation, MM = Missing Value Source: NWS Daily Summary

Daily Weather History Graph

Daily Weather History Graph

Search for Another Location

Airport:

Trip Planner

Search our weather history database for the weather conditions in past years. The results will help you decide how hot, cold, wet, or windy it might be!

Date:

Astronomy

Feb. 17, 2014 Rise Set
Actual Time 7:33 AM EST 6:22 PM EST
Civil Twilight 7:06 AM EST 6:49 PM EST
Nautical Twilight 6:34 AM EST 7:21 PM EST
Astronomical Twilight 6:03 AM EST 7:52 PM EST
Moon 9:15 PM EST (2/17) 8:34 AM EST (2/17)
Length of Visible Light 11h 43m
Length of Day
10h 48m
Waning Gibbous, 93% of the Moon is Illuminated
Feb 17
Waning Gibbous
Feb 22
Last Quarter
Mar 1
New
Mar 8
First Quarter
Mar 16
Full

Hourly Weather History & Observations

Time (EST) Temp. Windchill Dew Point Humidity Pressure Visibility Wind Dir Wind Speed Gust Speed Precip Events Conditions
12:15 AM 14.0 °F 6.5 °F 12.2 °F 93% 30.26 in 5.0 mi East 4.6 mph - N/A   Scattered Clouds
12:34 AM 10.4 °F 2.2 °F 8.6 °F 92% 30.27 in 5.0 mi East 4.6 mph - N/A   Scattered Clouds
12:54 AM 10.4 °F - 10.4 °F 100% 30.28 in 4.0 mi Calm Calm - N/A   Clear
1:15 AM 12.2 °F - 10.4 °F 92% 30.28 in 4.0 mi Calm Calm - N/A   Scattered Clouds
1:34 AM 10.4 °F - 10.4 °F 100% 30.29 in 3.0 mi Calm Calm - N/A   Scattered Clouds
1:54 AM 10.4 °F - 10.4 °F 100% 30.29 in 2.0 mi Calm Calm - N/A   Clear
2:15 AM 8.6 °F - 8.6 °F 100% 30.29 in 0.5 mi Calm Calm - N/A   Unknown
2:34 AM 5.0 °F -6.9 °F 3.2 °F 92% 30.27 in 0.2 mi East 6.9 mph - N/A   Unknown
2:54 AM 8.6 °F -1.3 °F 8.6 °F 100% 30.25 in 4.0 mi East 5.8 mph - N/A   Clear
3:15 AM 10.4 °F -0.4 °F 10.4 °F 100% 30.25 in 5.0 mi ESE 6.9 mph - N/A   Clear
3:34 AM 14.0 °F 3.9 °F 14.0 °F 100% 30.24 in 7.0 mi ESE 6.9 mph - N/A   Clear
3:55 AM 15.8 °F 7.2 °F 14.0 °F 93% 30.24 in 7.0 mi ESE 5.8 mph - N/A   Clear
4:15 AM 15.8 °F 4.2 °F 15.8 °F 100% 30.23 in 10.0 mi ESE 9.2 mph - N/A   Clear
4:34 AM 15.8 °F 5.1 °F 15.8 °F 100% 30.23 in 10.0 mi ESE 8.1 mph - N/A   Clear
4:55 AM 17.6 °F 5.7 °F 15.8 °F 93% 30.22 in 10.0 mi ESE 10.4 mph - N/A   Clear
5:15 AM 19.4 °F 7.9 °F 15.8 °F 86% 30.22 in 10.0 mi ESE 10.4 mph - N/A   Clear
5:34 AM 19.4 °F 7.9 °F 14.0 °F 80% 30.22 in 10.0 mi ESE 10.4 mph - N/A   Clear
5:55 AM 19.4 °F 7.9 °F 14.0 °F 80% 30.23 in 10.0 mi SE 10.4 mph - N/A   Clear
6:15 AM 19.4 °F 7.9 °F 14.0 °F 80% 30.22 in 10.0 mi SE 10.4 mph - N/A   Clear
6:34 AM 19.4 °F 7.2 °F 14.0 °F 80% 30.22 in 10.0 mi SE 11.5 mph - N/A   Clear
6:55 AM 19.4 °F 7.2 °F 15.8 °F 86% 30.22 in 10.0 mi SE 11.5 mph - N/A   Clear
7:14 AM 19.4 °F 7.2 °F 15.8 °F 86% 30.21 in 10.0 mi SE 11.5 mph - N/A   Clear
7:34 AM 19.4 °F 7.9 °F 15.8 °F 86% 30.21 in 10.0 mi SE 10.4 mph - N/A   Clear
7:55 AM 21.2 °F 8.3 °F 15.8 °F 80% 30.21 in 10.0 mi SE 13.8 mph 19.6 mph N/A   Scattered Clouds
8:14 AM 21.2 °F 7.8 °F 15.8 °F 80% 30.20 in 10.0 mi SE 15.0 mph - N/A   Clear
8:34 AM 21.2 °F 6.0 °F 15.8 °F 80% 30.16 in 10.0 mi ESE 19.6 mph 23.0 mph N/A   Clear
8:54 AM 21.2 °F 6.8 °F 15.8 °F 80% 30.15 in 7.0 mi SE 17.3 mph 24.2 mph N/A   Clear
9:15 AM 21.2 °F 9.5 °F 15.8 °F 80% 30.16 in 10.0 mi SE 11.5 mph 19.6 mph N/A   Clear
9:35 AM 23.0 °F 12.4 °F 15.8 °F 74% 30.16 in 10.0 mi SE 10.4 mph 16.1 mph N/A   Clear
9:54 AM 23.0 °F 8.7 °F 17.6 °F 80% 30.14 in 10.0 mi SE 18.4 mph 25.3 mph N/A   Clear
10:15 AM 23.0 °F 10.6 °F 17.6 °F 80% 30.11 in 7.0 mi SE 13.8 mph - N/A   Scattered Clouds
10:35 AM 23.0 °F 9.2 °F 17.6 °F 80% 30.09 in 10.0 mi SE 17.3 mph 24.2 mph N/A   Scattered Clouds
10:54 AM 24.8 °F 11.5 °F 17.6 °F 74% 30.05 in - ESE 17.3 mph 24.2 mph N/A   Unknown
11:15 AM 26.6 °F 14.3 °F 19.4 °F 74% 30.05 in 7.0 mi ESE 16.1 mph 23.0 mph N/A   Clear
11:35 AM 26.6 °F - 19.4 °F 74% - - North - - N/A   Unknown
11:54 AM 26.6 °F - 19.4 °F 74% - - North - - N/A   Unknown
12:15 PM - - - N/A% - - North - - N/A   Unknown
12:34 PM - - - N/A% 30.01 in - SSE 12.7 mph - N/A   Unknown
12:54 PM 28.4 °F 17.5 °F 21.2 °F 74% 29.97 in 10.0 mi SE 13.8 mph - N/A   Unknown
1:15 PM 28.4 °F 15.8 °F 19.4 °F 69% 29.92 in 10.0 mi ESE 18.4 mph - N/A   Clear
1:34 PM 30.2 °F 18.5 °F 21.2 °F 69% 29.87 in 10.0 mi ESE 17.3 mph 21.9 mph N/A   Clear
1:54 PM 30.2 °F 19.3 °F 21.2 °F 69% 29.84 in 10.0 mi ESE 15.0 mph 19.6 mph N/A   Clear
2:15 PM 30.2 °F 18.9 °F 21.2 °F 69% 29.78 in 10.0 mi ESE 16.1 mph 20.7 mph N/A   Scattered Clouds
2:34 PM 30.2 °F 19.3 °F 23.0 °F 75% 29.76 in 5.0 mi ESE 15.0 mph 20.7 mph N/A   Overcast
2:54 PM 30.2 °F 19.3 °F 24.8 °F 80% 29.73 in 5.0 mi ESE 15.0 mph 19.6 mph N/A   Overcast
3:15 PM 30.2 °F 20.8 °F 26.6 °F 86% 29.72 in 2.5 mi ESE 11.5 mph 16.1 mph N/A   Overcast
3:34 PM 30.2 °F 25.4 °F 26.6 °F 86% 29.76 in 1.5 mi South 4.6 mph - N/A   Overcast
3:55 PM 32.0 °F 26.4 °F 28.4 °F 87% 29.74 in 3.0 mi SSE 5.8 mph - N/A   Overcast
4:14 PM 32.0 °F 27.5 °F 30.2 °F 93% 29.73 in 2.5 mi SSE 4.6 mph - N/A   Overcast
4:35 PM 32.0 °F 27.5 °F 32.0 °F 100% 29.72 in 4.0 mi SSE 4.6 mph - N/A   Overcast
4:54 PM 32.0 °F 27.5 °F - N/A% 29.72 in 2.0 mi South 4.6 mph - N/A   Overcast
5:15 PM 32.0 °F 26.4 °F - N/A% 29.72 in 1.8 mi South 5.8 mph - N/A   Overcast
5:35 PM 32.0 °F 27.5 °F - N/A% 29.68 in 1.5 mi SSE 4.6 mph - N/A   Overcast
5:54 PM 32.0 °F 26.4 °F - N/A% 29.70 in 0.8 mi South 5.8 mph - N/A   Overcast
6:15 PM 32.0 °F 24.2 °F - N/A% 29.71 in 3.0 mi SW 9.2 mph - N/A   Overcast
6:35 PM 33.8 °F 24.8 °F - N/A% 29.72 in 7.0 mi WSW 12.7 mph 17.3 mph N/A   Overcast
6:54 PM 33.8 °F 23.5 °F - N/A% 29.72 in 7.0 mi WSW 16.1 mph 20.7 mph N/A   Overcast
7:15 PM 33.8 °F 23.5 °F - N/A% 29.74 in 10.0 mi West 16.1 mph - N/A   Overcast
7:35 PM 33.8 °F 21.9 °F 33.8 °F 100% 29.75 in 10.0 mi West 21.9 mph 27.6 mph N/A   Overcast
7:54 PM 33.8 °F 20.3 °F 33.8 °F 100% 29.78 in 10.0 mi West 28.8 mph 34.5 mph N/A   Overcast
8:15 PM 32.0 °F 18.9 °F 32.0 °F 100% 29.79 in 10.0 mi West 24.2 mph 36.8 mph N/A   Overcast
8:34 PM 32.0 °F 19.5 °F 32.0 °F 100% 29.80 in 10.0 mi West 21.9 mph - N/A   Overcast
8:54 PM 32.0 °F 19.5 °F 32.0 °F 100% 29.82 in 10.0 mi West 21.9 mph 27.6 mph N/A   Overcast
9:15 PM 33.8 °F 21.6 °F 32.0 °F 93% 29.83 in 10.0 mi West 23.0 mph 29.9 mph N/A   Overcast
9:34 PM 33.8 °F 21.9 °F 32.0 °F 93% 29.84 in 10.0 mi WSW 21.9 mph 32.2 mph N/A   Overcast
9:54 PM 33.8 °F 23.2 °F 32.0 °F 93% 29.84 in 10.0 mi WSW 17.3 mph 27.6 mph N/A   Overcast
10:15 PM 33.8 °F 22.2 °F 32.0 °F 93% 29.85 in 10.0 mi WSW 20.7 mph 26.5 mph N/A   Overcast
10:34 PM 33.8 °F 22.8 °F 32.0 °F 93% 29.85 in 7.0 mi WSW 18.4 mph 25.3 mph N/A   Overcast
10:54 PM 33.8 °F 21.6 °F 33.8 °F 100% 29.85 in 7.0 mi WSW 23.0 mph 27.6 mph N/A   Overcast
11:15 PM 33.8 °F 22.8 °F 33.8 °F 100% 29.85 in 7.0 mi SW 18.4 mph 28.8 mph N/A   Overcast
11:34 PM 33.8 °F 22.5 °F 33.8 °F 100% 29.85 in 7.0 mi WSW 19.6 mph 27.6 mph N/A   Scattered Clouds
11:54 PM 33.8 °F 22.5 °F 33.8 °F 100% 29.86 in 7.0 mi WSW 19.6 mph 24.2 mph N/A   Scattered Clouds